Location: Newark
(52.2583°N, 7.1190°W)
Time: 16:01:58
(UTC+00:00)

S-56A Canister/Altair - Pass Details

Date: 25 November 2019
Orbit: 633 x 2500 km, 38.9° (Epoch: 08 December)

Event Time Altitude Azimuth Distance (km) Brightness Sun altitude
Rises 20:17:57 0° 267° (W) 4,738 12.5 -34.9°
Reaches altitude 10° 20:22:46 10° 251° (WSW) 3,348 11.4 -35.6°
Maximum altitude 20:27:27 17° 215° (SW) 2,470 10.2 -36.3°
Enters shadow 20:28:21 16° 205° (SSW) 2,423 10.1 -36.5°
